loading
|

STARLINK-32143, 60296

Orbit data source: Space-Track

STARLINK-32143, 60296 is a payload satellite owned by SpaceX/Seattle (US) in LEO that was launched on Sun, 28 Jul 2024 UTC via an FALCON 9 launch vehicle from the Air Force Eastern Test Range (AFETR). Payloads include a variety of satellites, spacecraft, and rockets equipped with specific instruments for various scientific and technological missions. These include communications satellites like Starlink; space stations such as the ISS; scientific satellites like the Hubble; Earth observation satellites from companies like Planet Labs, Umbra, and HawkEye 360; GPS; miniature CubeSats for education and research; and military/defense satellites.

Loading next visibility...
Loading greatness...
STARLINK-32143 details
Identifier
60296, 2024-132U
Orbit
LEO
Last TLE update7 hours ago
Origin
Flag of USSpaceX/Seattle (US)
ManufacturerSpaceX/Seattle
Mission statusOperational
MissionUnknown
Bus & MotorSTARLINK V2M, Unknown motor
Mass750 kg wet, ~700 kg dry
Launch date (UTC)
2024-07-28 (2 months ago)
Launch vehicle
FALCON 9
Launch site
Air Force Eastern Test Range (AFETR)
Object type
Payload
Rocket body
Debris
Radar Cross SectionLarge (>1 m²)

Expand to show TLE details & history

TLE from 7 hours ago
0 STARLINK-32143
1 60296U 24132U   24261.57986335  .00011227  00000-0  28982-3 0  9991
2 60296  53.1600  32.5941 0001789  93.4979 266.6230 15.39665528  9161
Epoch: 2024-09-17T13:55Z
Definitive object data (Epoch: 2024-09-17T13:55:00.193Z)
Latitude-0.00006°
Longitude-173.14924°
Altitude448.073 km
Speed7.645 km/s
True Right ascension02h 10m 22s
True Declination0° 00' 00"
Sunlit
Object was in full shadow at TLE epoch
Predictive object data (real-time)
Latitude-52.94834°
Longitude86.09939°
Altitude466.678 km
Speed7.632 km/s
Apparent Right ascension23h 09m 46s
Apparent Declination-58° 23' 44"
Sunlit
Object is in daylight
Predictive observer data (real-time)
Local Sidereal Time14:06:13
Azimuth138.465° SSE
Elevation-56.625°
Doppler factor1
Orbital elements
Apogee448.576 km
Perigee446.134 km
Semi-major axis6,825.492 km
Eccentricity0.0001789
Inclination53.16°
RAAN32.5941°
Arg. of periapsis93.4979°
True anomaly266.60254°
Mean anomaly266.623°
Eccentric anomaly266.61277°
Mean motion3.84895 °/min
BSTAR0.00028982
Period93.53 mins
No data available

STARLINK-32143 Visibility forecast

Observer location: 39.9160978°, -105.1181434

STARLINK-32143 is not visible in the next 10 days
Span
Click to sort rows by Start time (UTC) header in descending order
Start Az.
Max El. time (UTC)
Max El. Az.
Max El.
End time (UTC)
End Az.